Regional Weather Roundup
Issued by NWS

Home | Current Version | Previous Version | Text Only | Print | Product List | Glossary On
Versions: 1 2 3 4 5 6 7 8 9 10 11 12 13 14 15 16 17 18 19 20 21 22 23 24 25 26 27 28 29 30 31 32 33 34 35 36 37 38 39 40 41 42 43 44 45 46 47 48 49 50
000
ASUS44 KBMX 061610
RWRAL

ALABAMA REGIONAL WEATHER ROUNDUP
NATIONAL WEATHER SERVICE BIRMINGHAM AL
1000 AM CST FRI MAR 06 2015

NOTE: "FAIR" INDICATES FEW OR NO CLOUDS BELOW 12,000 FEET
WITH NO SIGNIFICANT WEATHER AND/OR OBSTRUCTIONS TO VISIBILITY.

THE REMARK "TC" DENOTES TEMPERATURE IN DEGREES CELSIUS.

ALZ001>011-014-016>018-020-061700-
NORTH ALABAMA

CITY           SKY/WX    TMP DP  RH WIND       PRES   REMARKS
MUSCLE SHOALS  SUNNY     28  14  55 VRB3      30.58S
HUNTSVILLE     SUNNY     28  16  60 N8        30.55F WCI  20
DECATUR        SUNNY     26  16  65 NE6       30.56F WCI  19
HALEYVILLE       N/A     25  16  68 N8        30.55S WCI  16
GADSDEN        CLOUDY    28  18  64 NE7       30.51S WCI  21
$$

ALZ012-013-022-023-030>036-040>044-061700-
WEST CENTRAL ALABAMA

CITY           SKY/WX    TMP DP  RH WIND       PRES   REMARKS
TUSCALOOSA     SUNNY     32  18  56 N8        30.57S WCI  25
$$

ALZ015-024>027-033>036-040>044-061700-
CENTRAL ALABAMA

CITY           SKY/WX    TMP DP  RH WIND       PRES   REMARKS
BIRMINGHAM     MOSUNNY   30  21  69 N9        30.53F WCI  22
MONTGOMERY     CLOUDY    36  24  62 N10       30.50R WCI  28
SHELBY CO ARPT CLOUDY    32  23  69 VRB7      30.51S WCI  26
MAXWELL AFB    CLOUDY    35  24  65 NW7       30.49S WCI  29
GREENVILLE     NOT AVBL
$$

ALZ019-021-028-029-037-038-045>048-061700-
EAST CENTRAL ALABAMA

CITY           SKY/WX    TMP DP  RH WIND       PRES   REMARKS
ANNISTON       CLOUDY    31  22  69 VRB5      30.51R WCI  26
ALEXANDER CITY PTSUNNY   37  24  58 NW6       30.46S WCI  32
AUBURN         CLOUDY    37  27  65 N8        30.45S WCI  31
$$

ALZ051>064-061700-
SOUTHWEST ALABAMA

CITY           SKY/WX    TMP DP  RH WIND       PRES   REMARKS
MOBILE         PTSUNNY   38  18  44 N15G23    30.47R WCI  29
BROOKLEY FIELD SUNNY     40  22  48 N18       30.48R WCI  31
EVERGREEN      MOSUNNY   35  21  56 MISG      30.47S
$$

ALZ049-050-065>069-061700-
SOUTHEAST ALABAMA

CITY           SKY/WX    TMP DP  RH WIND       PRES   REMARKS
DOTHAN         CLOUDY    39  31  72 N8        30.45R WCI  33
OZARK          CLOUDY    38  28  67 N10       30.41S WCI  31
TROY           CLOUDY    36  27  69 N9        30.46R WCI  29
EUFAULA        CLOUDY    38  31  76 VRB3      30.43R
$$



USA.gov is the U.S. government's official web portal to all federal, state and local government web resources and services.